| time (UTC) | temp F | wind direction | speed knots | gust knots | rain 1hr in | rain 24hr in | rain mn in | humidity % | barometer mb |
| 20260510114605 | 68 | 194 | 1.7 | 4.3 | 0.00 | 0.00 | 0.00 | 93 | 1010.9 |
| 20260510113058 | 68 | 161 | 3.5 | 5.2 | 0.00 | 0.00 | 0.00 | 92 | 1010.9 |
| 20260510111601 | 68 | 177 | 1.7 | 3.5 | 0.00 | 0.00 | 0.00 | 92 | 1011.1 |
| 20260510110056 | 68 | 171 | 1.7 | 3.5 | 0.00 | 0.00 | 0.00 | 91 | 1011.0 |
| 20260510104554 | 69 | 169 | 0.0 | 0.9 | 0.00 | 0.00 | 0.00 | 90 | 1011.1 |
| 20260510103053 | 69 | 169 | 0.0 | 0.0 | 0.00 | 0.00 | 0.00 | 90 | 1011.2 |
| 20260510101553 | 69 | 169 | 0.0 | 2.6 | 0.00 | 0.00 | 0.00 | 90 | 1011.3 |
| 20260510100050 | 69 | 169 | 3.5 | 5.2 | 0.00 | 0.00 | 0.00 | 90 | 1011.3 |
| 20260510094548 | 70 | 172 | 0.9 | 2.6 | 0.00 | 0.00 | 0.00 | 90 | 1011.1 |
| 20260510093047 | 70 | 173 | 1.7 | 4.3 | 0.00 | 0.00 | 0.00 | 89 | 1011.1 |
| 20260510091548 | 70 | 157 | 2.6 | 7.0 | 0.00 | 0.00 | 0.00 | 89 | 1011.0 |
| 20260510090044 | 70 | 149 | 3.5 | 7.0 | 0.00 | 0.00 | 0.00 | 88 | 1011.0 |
| 20260510084541 | 71 | 178 | 1.7 | 3.5 | 0.00 | 0.00 | 0.00 | 88 | 1011.0 |
| 20260510083038 | 71 | 178 | 1.7 | 3.5 | 0.00 | 0.00 | 0.00 | 87 | 1010.9 |
| 20260510081541 | 72 | 178 | 0.0 | 1.7 | 0.00 | 0.00 | 0.00 | 87 | 1010.8 |
| 20260510080035 | 72 | 178 | 0.9 | 2.6 | 0.00 | 0.00 | 0.00 | 87 | 1010.8 |
| 20260510074533 | 72 | 178 | 0.0 | 2.6 | 0.00 | 0.00 | 0.00 | 86 | 1010.7 |
| 20260510073034 | 73 | 176 | 0.9 | 3.5 | 0.00 | 0.00 | 0.00 | 86 | 1010.7 |
| 20260510071532 | 73 | 166 | 3.5 | 5.2 | 0.00 | 0.00 | 0.00 | 86 | 1010.5 |
| 20260510070029 | 73 | 169 | 0.9 | 5.2 | 0.00 | 0.00 | 0.00 | 86 | 1010.6 |
| 20260510064532 | 74 | 173 | 1.7 | 4.3 | 0.00 | 0.00 | 0.00 | 86 | 1010.6 |
| 20260510063034 | 74 | 173 | 0.9 | 5.2 | 0.00 | 0.00 | 0.00 | 86 | 1010.6 |
| 20260510061527 | 74 | 155 | 1.7 | 5.2 | 0.00 | 0.00 | 0.00 | 86 | 1010.7 |
| 20260510060025 | 75 | 155 | 1.7 | 6.1 | 0.00 | 0.00 | 0.00 | 85 | 1010.8 |
| 20260510054520 | 75 | 165 | 1.7 | 5.2 | 0.00 | 0.00 | 0.00 | 85 | 1010.6 |
| 20260510053019 | 76 | 165 | 1.7 | 5.2 | 0.00 | 0.00 | 0.00 | 84 | 1010.6 |
| 20260510051517 | 76 | 173 | 3.5 | 6.1 | 0.00 | 0.00 | 0.00 | 84 | 1010.5 |
| 20260510050018 | 76 | 157 | 3.5 | 7.0 | 0.00 | 0.00 | 0.00 | 83 | 1010.4 |
| 20260510044513 | 77 | 151 | 3.5 | 7.0 | 0.00 | 0.00 | 0.00 | 81 | 1010.2 |
| 20260510043012 | 77 | 169 | 4.3 | 7.0 | 0.00 | 0.00 | 0.00 | 81 | 1010.2 |
| 20260510041511 | 77 | 151 | 5.2 | 8.7 | 0.00 | 0.00 | 0.00 | 80 | 1010.1 |
| 20260510040015 | 77 | 165 | 4.3 | 7.8 | 0.00 | 0.00 | 0.00 | 80 | 1010.1 |
| 20260510034509 | 77 | 148 | 5.2 | 8.7 | 0.00 | 0.00 | 0.00 | 79 | 1009.9 |
| 20260510033008 | 77 | 136 | 7.0 | 11.3 | 0.00 | 0.00 | 0.00 | 78 | 1009.9 |
| 20260510031515 | 78 | 146 | 2.6 | 4.3 | 0.00 | 0.00 | 0.00 | 76 | 1009.4 |
| 20260510030010 | 79 | 148 | 3.5 | 5.2 | 0.00 | 0.00 | 0.00 | 75 | 1009.2 |
| 20260510024507 | 79 | 148 | 2.6 | 5.2 | 0.00 | 0.00 | 0.00 | 73 | 1009.0 |
| 20260510023005 | 80 | 128 | 3.5 | 4.3 | 0.00 | 0.00 | 0.00 | 73 | 1008.9 |
| 20260510021505 | 80 | 135 | 2.6 | 4.3 | 0.00 | 0.00 | 0.00 | 72 | 1008.8 |
| 20260510020006 | 81 | 134 | 0.0 | 1.7 | 0.00 | 0.00 | 0.00 | 72 | 1008.7 |
| 20260510014506 | 81 | 134 | 0.0 | 2.6 | 0.00 | 0.00 | 0.00 | 70 | 1008.6 |
| 20260510013003 | 82 | 134 | 0.9 | 2.6 | 0.00 | 0.00 | 0.00 | 70 | 1008.3 |
| 20260510011503 | 83 | 134 | 2.6 | 4.3 | 0.00 | 0.00 | 0.00 | 70 | 1008.2 |
| 20260510010003 | 84 | 137 | 3.5 | 7.0 | 0.00 | 0.00 | 0.00 | 68 | 1008.1 |
| 20260510004600 | 85 | 146 | 4.3 | 6.1 | 0.00 | 0.00 | 0.00 | 64 | 1008.0 |
| 20260510003106 | 86 | 153 | 3.5 | 7.8 | 0.00 | 0.00 | 0.00 | 62 | 1007.8 |
| 20260510001600 | 86 | 155 | 4.3 | 8.7 | 0.00 | 0.00 | 0.00 | 59 | 1007.7 |
| 20260510000100 | 87 | 148 | 4.3 | 7.8 | 0.00 | 0.00 | 0.00 | 60 | 1007.6 |
| 20260509234600 | 87 | 149 | 6.1 | 10.4 | 0.00 | 0.00 | 0.00 | 58 | 1007.5 |
| 20260509233056 | 88 | 143 | 5.2 | 9.6 | 0.00 | 0.00 | 0.00 | 58 | 1007.4 |
| 20260509231557 | 89 | 172 | 4.3 | 9.6 | 0.00 | 0.00 | 0.00 | 57 | 1007.1 |
| 20260509230056 | 89 | 220 | 4.3 | 8.7 | 0.00 | 0.00 | 0.00 | 58 | 1007.3 |
| 20260509224559 | 89 | 207 | 5.2 | 9.6 | 0.00 | 0.00 | 0.00 | 54 | 1007.2 |
| 20260509223051 | 90 | 197 | 3.5 | 7.0 | 0.00 | 0.00 | 0.00 | 51 | 1007.5 |
| 20260509221602 | 90 | 201 | 3.5 | 9.6 | 0.00 | 0.00 | 0.00 | 54 | 1007.5 |
| 20260509220048 | 90 | 192 | 3.5 | 7.8 | 0.00 | 0.00 | 0.00 | 51 | 1007.5 |
| 20260509214545 | 90 | 197 | 1.7 | 5.2 | 0.00 | 0.00 | 0.00 | 55 | 1007.6 |
| 20260509213044 | 91 | 216 | 0.9 | 7.8 | 0.00 | 0.00 | 0.00 | 50 | 1007.7 |
| 20260509211544 | 92 | 218 | 4.3 | 7.8 | 0.00 | 0.00 | 0.00 | 52 | 1007.9 |
| 20260509210044 | 92 | 197 | 1.7 | 7.8 | 0.00 | 0.00 | 0.00 | 55 | 1008.0 |
| 20260509204538 | 92 | 253 | 5.2 | 8.7 | 0.00 | 0.00 | 0.00 | 56 | 1008.3 |
| 20260509203036 | 91 | 174 | 1.7 | 9.6 | 0.00 | 0.00 | 0.00 | 56 | 1008.4 |
| 20260509201544 | 91 | 238 | 0.9 | 7.0 | 0.00 | 0.00 | 0.00 | 55 | 1008.6 |
| 20260509200034 | 91 | 209 | 3.5 | 7.8 | 0.00 | 0.00 | 0.00 | 55 | 1008.8 |
| 20260509194532 | 91 | 223 | 2.6 | 7.8 | 0.00 | 0.00 | 0.00 | 57 | 1009.2 |
| 20260509193031 | 90 | 225 | 5.2 | 9.6 | 0.00 | 0.00 | 0.00 | 58 | 1009.6 |
| 20260509191530 | 90 | 163 | 3.5 | 7.8 | 0.00 | 0.00 | 0.00 | 57 | 1009.7 |
| 20260509190027 | 90 | 260 | 4.3 | 8.7 | 0.00 | 0.00 | 0.00 | 61 | 1009.9 |
| 20260509184527 | 89 | 296 | 3.5 | 8.7 | 0.00 | 0.00 | 0.00 | 61 | 1009.8 |
| 20260509183026 | 89 | 269 | 3.5 | 7.8 | 0.00 | 0.00 | 0.00 | 60 | 1010.0 |
| 20260509181522 | 89 | 227 | 3.5 | 7.8 | 0.00 | 0.00 | 0.00 | 65 | 1010.2 |
| 20260509180019 | 88 | 248 | 1.7 | 7.8 | 0.00 | 0.00 | 0.00 | 67 | 1010.4 |
| 20260509174516 | 87 | 225 | 3.5 | 9.6 | 0.00 | 0.00 | 0.00 | 67 | 1010.6 |
| 20260509173014 | 87 | 231 | 2.6 | 8.7 | 0.00 | 0.00 | 0.00 | 67 | 1010.6 |
| 20260509171521 | 86 | 229 | 2.6 | 9.6 | 0.00 | 0.00 | 0.00 | 68 | 1010.9 |
| 20260509170023 | 85 | 238 | 5.2 | 10.4 | 0.00 | 0.00 | 0.00 | 70 | 1010.9 |
| 20260509164507 | 85 | 230 | 5.2 | 10.4 | 0.00 | 0.00 | 0.00 | 69 | 1011.0 |
| 20260509163008 | 83 | 263 | 6.1 | 9.6 | 0.00 | 0.00 | 0.00 | 68 | 1010.9 |
| 20260509161601 | 82 | 229 | 3.5 | 12.2 | 0.00 | 0.00 | 0.00 | 78 | 1010.8 |
| 20260509160054 | 80 | 269 | 5.2 | 9.6 | 0.00 | 0.00 | 0.00 | 85 | 1010.5 |
| 20260509154548 | 77 | 285 | 7.8 | 11.3 | 0.00 | 0.00 | 0.00 | 90 | 1011.0 |
| 20260509153053 | 76 | 289 | 3.5 | 10.4 | 0.00 | 0.00 | 0.00 | 96 | 1010.9 |
| 20260509151543 | 75 | 237 | 5.2 | 10.4 | 0.00 | 0.00 | 0.00 | 96 | 1010.6 |
| 20260509150048 | 75 | 244 | 7.0 | 10.4 | 0.00 | 0.00 | 0.00 | 96 | 1011.0 |
| 20260509144539 | 74 | 175 | 0.0 | 2.6 | 0.00 | 0.00 | 0.00 | 96 | 1011.3 |
| 20260509143038 | 74 | 217 | 1.7 | 6.1 | 0.00 | 0.00 | 0.00 | 96 | 1011.5 |
| 20260509141537 | 74 | 202 | 1.7 | 7.8 | 0.00 | 0.00 | 0.00 | 96 | 1011.4 |
| 20260509140036 | 74 | 155 | 2.6 | 7.0 | 0.00 | 0.00 | 0.00 | 96 | 1011.4 |
| 20260509134545 | 74 | 140 | 3.5 | 7.0 | 0.00 | 0.00 | 0.00 | 96 | 1011.0 |
| 20260509133035 | 74 | 136 | 0.9 | 7.8 | 0.00 | 0.00 | 0.00 | 96 | 1009.8 |
| 20260509131547 | 74 | 125 | 1.7 | 5.2 | 0.00 | 0.00 | 0.00 | 96 | 1009.9 |
| 20260509130039 | 74 | 140 | 3.5 | 4.3 | 0.00 | 0.00 | 0.00 | 96 | 1010.7 |
| 20260509124531 | 73 | 43 | 3.5 | 7.8 | 0.00 | 0.00 | 0.00 | 96 | 1011.2 |
| 20260509123031 | 73 | 37 | 2.6 | 6.1 | 0.00 | 0.00 | 0.00 | 96 | 1011.1 |
| 20260509121531 | 73 | 31 | 1.7 | 7.8 | 0.00 | 0.00 | 0.00 | 96 | 1011.3 |
| 20260509120030 | 73 | 36 | 1.7 | 8.7 | 0.00 | 0.00 | 0.00 | 96 | 1011.0 |